カタログに戻る

CZ-3C DEB

運用中GTO
NORAD 40201·DEBRIS·🇨🇳 China

打ち上げ Feb 24, 2012 から Xichang Satellite Launch Center

Loading…

TLE

古いSource: Space-Track

元期: Sep 13, 2026, 17:36 UTC

1 40201U 12008L   26256.73368788 -.00000080  00000-0  43041-2 0  9992
2 40201  21.5090  46.7484 7093516 131.2407 316.1409  2.24774916105189

AllMySatでCZ-3C DEBをリアルタイム追跡

Download on the App Store